Regional Weather Roundup
Issued by NWS Little Rock, AR

Home | Current Version | Previous Version | Graphics & Text | Print | Product List | Glossary On
Versions: 1 2 3 4 5 6 7 8 9 10 11 12 13 14 15 16 17 18 19 20 21 22 23 24 25 26 27
000
ASUS44 KLZK 230405
RWRLZK

WEATHER ROUNDUP FOR ARKANSAS
NATIONAL WEATHER SERVICE LITTLE ROCK AR
1100 PM CDT FRI JUL 22 2016

NOTE: "FAIR" INDICATES FEW OR NO CLOUDS BELOW 12,000 FEET WITH NO
SIGNIFICANT WEATHER AND/OR OBSTRUCTIONS TO VISIBILITY.

ARZ001-003-010-029-230500-
NORTHWEST ARKANSAS

CITY           SKY/WX    TMP DP  RH WIND       PRES   REMARKS
FAYETTEVILLE   CLEAR     76  76 100 CALM      30.04S
FORT SMITH     PTCLDY    88  74  63 E5        29.98S HX  96
HARRISON       CLEAR     82  74  76 CALM      30.06S HX  88
BENTONVILLE    CLEAR     82  72  69 S3        30.05F HX  87
ROGERS         CLEAR     82  74  76 SE6       30.05F HX  88
SILOAM SPGS    CLEAR     81  66  61 CALM      30.05S
HIGHFILL       CLEAR     83  75  77 SE5       30.04S HX  90
$$

ARZ004-005-016-230500-
NORTH CENTRAL ARKANSAS

CITY           SKY/WX    TMP DP  RH WIND       PRES   REMARKS
BATESVILLE     PTCLDY    77  73  88 CALM      30.01S
FLIPPIN        CLEAR     82  75  78 CALM      29.99S HX  89
MTN HOME       CLOUDY    82  79  90 CALM      30.02S HX  92
$$

ARZ040-041-230500-
WEST CENTRAL ARKANSAS

CITY           SKY/WX    TMP DP  RH WIND       PRES   REMARKS
MENA           MOCLDY    82  77  83 CALM      30.04R HX  91
MOUNT IDA      CLOUDY    84  77  79 CALM      30.01S HX  94
$$

ARZ009-017-025-026-028-230500-
NORTHEAST ARKANSAS

CITY           SKY/WX    TMP DP  RH WIND       PRES   REMARKS
CORNING          N/A     81  79  94 CALM      30.00F HX  89
JONESBORO      CLOUDY    79  76  90 CALM      29.99F
NEWPORT        PTCLDY    78  76  94 CALM      30.01R
WALNUT RIDGE     N/A     82  75  78 CALM      29.99S HX  89
BLYTHEVILLE    CLOUDY    77  71  82 S3        30.00S
$$

ARZ022-023-033-042-044-230500-
CENTRAL ARKANSAS

CITY           SKY/WX    TMP DP  RH WIND       PRES   REMARKS
LITTLE ROCK    CLOUDY    84  74  71 W3        29.99F HX  91
N LITTLE ROCK    N/A     82  75  80 SW3       29.96F HX  88
JACKSONVILLE   CLOUDY    84  75  75 CALM      29.99S HX  92
SEARCY         PTCLDY    81  78  91 CALM      30.00S HX  89
HOT SPRINGS    PTCLDY    83  73  72 E5        30.02S HX  89
RUSSELLVILLE   CLEAR     83  79  88 CALM      29.99S HX  94
$$

ARZ036-230500-
EAST ARKANSAS

CITY           SKY/WX    TMP DP  RH WIND       PRES   REMARKS
WEST MEMPHIS   CLOUDY    84  72  67 SE8       29.99R HX  89
$$

ARZ050-053-066-070-073-230500-
SOUTHWEST ARKANSAS

CITY           SKY/WX    TMP DP  RH WIND       PRES   REMARKS
CAMDEN         CLOUDY    82  75  78 CALM      29.99S HX  89
TEXARKANA      PTCLDY    87  74  64 S5        30.00R HX  95
EL DORADO      MOCLDY    80  77  90 CALM      30.00F HX  87
DE QUEEN       CLOUDY    82  77  84 E3        29.97R HX  90
$$

ARZ056-057-069-230500-
SOUTHEAST ARKANSAS

CITY           SKY/WX    TMP DP  RH WIND       PRES   REMARKS
PINE BLUFF     PTCLDY    83  78  85 W5        29.99F HX  93
STUTTGART      MOCLDY    82  73  74 S7        30.00R HX  88
MONTICELLO     MOCLDY    82  76  81 S5        30.01S HX  89

$$






USA.gov is the U.S. government's official web portal to all federal, state and local government web resources and services.